Punta Gorda, FL

4:19 AM EDT on October 23, 2019 (GMT -0400)
Charlotte County

Weather History for KPGD - September, 2019

Change the Weather History Date:

Friday, September 20, 2019

  Actual Average Record
Temperature  
Mean Temperature 77 °F -  
Max Temperature 84 °F 86 °F 96 °F (2018)
Min Temperature 70 °F 71 °F 69 °F (2007)
Cooling Degree Days 12    
Growing Degree Days 27 (Base 50)    
Moisture  
Dew Point 71 °F    
Average Humidity 84    
Maximum Humidity 100    
Minimum Humidity 65    
Precipitation  
Precipitation 0.03 in - - ()
Sea Level Pressure  
Sea Level Pressure 30.06 in    
Wind  
Wind Speed 12 mph (ENE)    
Max Wind Speed 25 mph    
Max Gust Speed 36 mph    
Visibility 10 miles    
Events Rain    
Averages and records for this station are not official NWS values.
T = Trace of Precipitation, MM = Missing Value Source: NWS Daily Summary

Daily Weather History Graph

Daily Weather History Graph

Search for Another Location

Airport or City:

Astronomy

Sep. 20, 2019 Rise Set
Actual Time 7:15 AM EDT 7:26 PM EDT
Civil Twilight 6:52 AM EDT 7:50 PM EDT
Nautical Twilight 6:25 AM EDT 8:17 PM EDT
Astronomical Twilight 5:57 AM EDT 8:44 PM EDT
Moon 11:47 PM EDT (9/20) 12:48 PM EDT (9/20)
Length of Visible Light 12h 57m
Length of Day
12h 11m
Waning Gibbous, 65% of the Moon is Illuminated
Sep 20
Waning Gibbous
Sep 21
Last Quarter
Sep 28
New
Oct 5
First Quarter
Oct 13
Full

Hourly Weather History & Observations

Time (EDT) Temp. Heat Index Dew Point Humidity Pressure Visibility Wind Dir Wind Speed Gust Speed Precip Events Conditions
12:53 AM 73.0 °F - 69.1 °F 87% 30.04 in 10.0 mi NE 10.4 mph - N/A   Partly Cloudy
1:53 AM 72.0 °F - 69.1 °F 91% 30.02 in 10.0 mi NE 10.4 mph - N/A   Scattered Clouds
2:53 AM 71.1 °F - 69.1 °F 93% 30.01 in 10.0 mi NNE 6.9 mph - N/A   Partly Cloudy
3:53 AM 71.1 °F - 70.0 °F 96% 30.00 in 10.0 mi NE 10.4 mph - N/A   Mostly Cloudy
4:53 AM 72.0 °F - 70.0 °F 93% 29.99 in 10.0 mi ENE 8.1 mph - N/A   Overcast
5:53 AM 71.1 °F - 70.0 °F 96% 30.01 in 10.0 mi NE 9.2 mph - N/A   Partly Cloudy
6:53 AM 70.0 °F - 70.0 °F 100% 30.03 in 10.0 mi NE 9.2 mph - N/A   Clear
7:53 AM 72.0 °F - 70.0 °F 93% 30.04 in 10.0 mi NE 9.2 mph - N/A   Clear
8:53 AM 75.0 °F - 72.0 °F 90% 30.06 in 10.0 mi ENE 12.7 mph - N/A   Scattered Clouds
9:53 AM 79.0 °F - 72.0 °F 79% 30.07 in 10.0 mi NE 16.1 mph - N/A   Mostly Cloudy
10:53 AM 82.0 °F 86.7 °F 72.0 °F 71% 30.08 in 10.0 mi ENE 17.3 mph - N/A   Mostly Cloudy
11:53 AM 79.0 °F - 75.9 °F 90% 30.09 in 10.0 mi ENE 11.5 mph - 0.01 in Rain Light Rain
12:53 PM 81.0 °F 86.2 °F 73.9 °F 79% 30.08 in 10.0 mi ENE 20.7 mph 25.3 mph 0.00 in   Mostly Cloudy
1:53 PM 82.0 °F 88.6 °F 75.0 °F 79% 30.07 in 10.0 mi ENE 12.7 mph - 0.00 in   Mostly Cloudy
2:53 PM 84.0 °F 91.2 °F 73.9 °F 72% 30.05 in 7.0 mi ENE 23.0 mph 32.2 mph N/A   Scattered Clouds
3:53 PM 81.0 °F 85.8 °F 73.0 °F 77% 30.06 in 10.0 mi ENE 25.3 mph 35.7 mph 0.02 in   Mostly Cloudy
4:53 PM 82.0 °F 85.5 °F 69.1 °F 65% 30.06 in 10.0 mi ENE 20.7 mph 29.9 mph N/A   Mostly Cloudy
5:53 PM 81.0 °F 84.4 °F 70.0 °F 69% 30.06 in 10.0 mi ENE 17.3 mph - N/A   Mostly Cloudy
6:53 PM 80.1 °F 82.9 °F 69.1 °F 69% 30.06 in 10.0 mi East 16.1 mph - N/A   Partly Cloudy
7:53 PM 78.1 °F - 69.1 °F 74% 30.07 in 10.0 mi ENE 12.7 mph - N/A   Clear
8:53 PM 75.9 °F - 69.1 °F 79% 30.09 in 10.0 mi ENE 11.5 mph - N/A   Clear
9:53 PM 75.0 °F - 70.0 °F 84% 30.11 in 10.0 mi ENE 10.4 mph - N/A   Clear
10:53 PM 73.0 °F - 70.0 °F 90% 30.12 in 10.0 mi ENE 8.1 mph - N/A   Clear
11:53 PM 73.0 °F - 70.0 °F 90% 30.12 in 10.0 mi ENE 9.2 mph - N/A   Clear